sat.trackr.live / text

‹ back to catalog

STARLINK-5468

NORAD 54777 · 2022-175V

PAYLOAD ACTIVE UNKNOWN

§ Identity

Operator
Country
US
Launch date
2022-12-17
Launch site
AFETR
Launch vehicle
Mass (kg)
RCS (m²)

Purposes: comms

External: N2YO · Heavens-Above · Gunter

§ Orbital elements

Epoch: 2026-05-25T03:25:00.105312Z

Period
95.44 min
Inclination
53.2136°
Eccentricity
0.0001524
Mean motion
15.08848750 rev/d
Perigee alt
538.7 km
Apogee alt
540.8 km
Semi-major
6,917.9 km
B*
-7.6276e-5
RAAN
60.7083°
Arg perigee
93.1500°
Mean anomaly
266.9667°
Rev number
19,146

§ Raw data

STARLINK-54681 54777U 22175V   26145.14236233 -.00001502  00000+0 -76276-4 0  99902 54777  53.2136  60.7083 0001524  93.1500 266.9667 15.08848750191465

JSON: /api/v1/satellites/54777 · /tle

For live sub-satellite position, see the globe view (requires WebGL).

§ Visibility from observer

Set your observer location to see the next 7 days of passes ≥ 10°. The values pass through the URL so the page stays shareable.

No JS? Fill the form by hand. The geolocation button needs JavaScript.